Find INTELSAT 902

NORAD ID: 26900 Int'l Des: 2001-039 Owner: INTELD Country: US operational
HEOCIRCULARGSO

实时位置

正在加载3D地球...

关于 INTELSAT 902

正在加载描述...

即将过境

Passes for default location (London). Set your location on the main map for personalized predictions.

高度历史

Loading altitude history...

两行轨道根数

1 26900U 01039A 26106.15400595 -.00000272 00000-0 00000-0 0 9996
2 26900 5.9625 72.5248 0004650 309.9636 187.1609 1.00272288 90073
Epoch: Apr 16, 2026 • Age: 8 hours

当前状态

高度 35773.9 km
速度 3.08 km/s
星下点 -5.88°S, 50.19°W
发射日期 Aug 30, 2001
运行时间 24.6 years
类型 communications

技术详情

分类 Payload
质量 4723.00 kg
干质量 1978.00 kg
总质量 4723.00 kg
长度 5.60 m
直径 2.80 m
跨度 31.00 m
形状 Box + 2 Pan + 2 Dish
制造商 LOR
平台类型 FS-1300HL
阶段状态 In Orbit
所有者/国家 INTELD/US

Most Searched